This is the latest recevied weather packets stored in our database for station/object NW5W-12. If no packets are shown the sender has not sent any weather packets the latest 10 day(s).
| Time | Temp. | Humidity | Pressure | Rain* | Wind** | Luminosity | Snow |
|---|---|---|---|---|---|---|---|
| 1778109042 | 12.22° C | 30% | 1020.1 hPa | 3.56 mm | - | - | - |
| 1778108742 | 12.22° C | 29% | 1020.1 hPa | 3.56 mm | - | - | - |
| 1778108442 | 12.22° C | 29% | 1020.1 hPa | 3.56 mm | - | - | - |
| 1778108142 | 12.22° C | 30% | 1020.1 hPa | 3.56 mm | - | - | - |
| 1778107842 | 11.67° C | 29% | 1020.2 hPa | 3.56 mm | - | - | - |
| 1778107542 | 11.67° C | 30% | 1020.1 hPa | 3.56 mm | - | - | - |
| 1778107243 | 12.22° C | 29% | 1020.2 hPa | 3.56 mm | - | - | - |
| 1778106942 | 12.22° C | 31% | 1020.2 hPa | 3.56 mm | - | - | - |
| 1778106642 | 12.22° C | 29% | 1020.2 hPa | 3.56 mm | - | - | - |
| 1778106343 | 12.22° C | 31% | 1020.2 hPa | 3.56 mm | - | - | - |
| 1778106042 | 12.22° C | 29% | 1020.2 hPa | 3.56 mm | - | - | - |
| 1778105742 | 12.22° C | 31% | 1020.2 hPa | 3.56 mm | - | - | - |
| 1778105442 | 11.67° C | 29% | 1020.1 hPa | 3.56 mm | - | - | - |
| 1778105142 | 12.22° C | 29% | 1020.3 hPa | 3.56 mm | - | - | - |
| 1778104842 | 12.22° C | 30% | 1020.2 hPa | 3.56 mm | - | - | - |
| 1778104542 | 12.22° C | 31% | 1020.3 hPa | 3.56 mm | - | - | - |
| 1778104242 | 12.78° C | 32% | 1020.2 hPa | 3.56 mm | - | - | - |
| 1778103942 | 12.22° C | 28% | 1020.3 hPa | 3.56 mm | - | - | - |
| 1778103642 | 12.22° C | 28% | 1020.4 hPa | 3.56 mm | - | - | - |
| 1778103342 | 12.22° C | 30% | 1020.4 hPa | 3.56 mm | - | - | - |
| 1778103042 | 12.22° C | 32% | 1020.2 hPa | 3.56 mm | - | - | - |
| 1778102742 | 11.67° C | 30% | 1020.2 hPa | 3.56 mm | - | - | - |
| 1778102442 | 11.67° C | 30% | 1020.2 hPa | 3.56 mm | - | - | - |
| 1778102142 | 11.67° C | 31% | 1020.3 hPa | 3.56 mm | - | - | - |
| 1778101842 | 11.11° C | 29% | 1020.3 hPa | 3.56 mm | - | - | - |
* Rain since midnight (hover to see other rain measurements)
** Current wind speed in m/s (hover to see current wind gust speed)